User: anonymous   Login
Location: Emory University Observatory
(33.7903°N, 84.3267°W)
Time: 01:24:08
(UTC-05:00)
Language:

N. Korean satellite - Orbit

View from above orbital plane
View from above orbital plane
View from above satellite
View from above satellite

Ground track
Ground track

The orbit data is extracted from the following two-line orbital elements,

1 39026U 12072A   17350.59013379 +.00001575 +00000-0 +62477-4 0  9993
2 39026 097.2159 002.1958 0038190 250.1068 109.6054 15.26195126277743
Epoch (UTC): 16 December 2017 14:09:47
Eccentricity: 0.0038190
inclination: 97.2159°
perigee height: 461 km
apogee height: 513 km
right ascension of ascending node: 2.1958°
argument of perigee: 250.1068°
revolutions per day: 15.26195126
mean anomaly at epoch: 109.6054°
orbit number at epoch: 27774

The dashed part of the orbit path shows where the satellite is in the earth's shadow,  

DLR